Regional Weather Roundup
Issued by NWS Bismarck, ND

Home | Current Version | Previous Version | Text Only | Print | Product List | Glossary On
Versions: 1 2 3 4 5 6 7 8 9 10 11 12 13 14 15 16 17 18 19 20 21 22 23 24 25 26 27 28 29 30 31 32 33 34 35 36 37 38 39 40 41 42 43 44 45 46 47 48 49 50
000
ASUS43 KBIS 061510
RWRBIS

NWR BROADCAST TEXT
NATIONAL WEATHER SERVICE BISMARCK ND
1000 AM CDT FRI MAY 06 2016

NOTE: "FAIR" INDICATES FEW OR NO CLOUDS BELOW 12,000 FEET WITH NO
SIGNIFICANT WEATHER AND/OR OBSTRUCTIONS TO VISIBILITY.


CITY           SKY/WX    TMP DP  RH WIND       PRES   REMARKS
WILLISTON      MOSUNNY   58  42  55 N20       30.06
MINOT          SUNNY     69  43  38 N23G33    29.95R
MINOT AFB      MOSUNNY   64  45  50 N21G26    29.95R
BISMARCK       MOSUNNY   70  49  47 N12       29.88
DICKINSON      SUNNY     62  44  51 N21G26    29.98R
GARRISON         N/A     66  47  50 N23G37    29.93R
HETTINGER ARPT MOSUNNY   67  46  47 N28G37    29.95R
JAMESTOWN      MOSUNNY   74  46  36 NW18      29.79R
BEACH          FAIR      57  41  54 N21G29    30.07S
CARRINGTON     FAIR      70  46  43 N22       29.85R
HAZEN          FAIR      64  46  52 N22G29    29.98R
LINTON         FAIR      72  57  60 NW9       29.87R
MANDAN         FAIR      68  50  52 N23       29.89R
OAKES            N/A    N/A N/A N/A MISG        N/A
RUGBY          FAIR      64  41  42 N18G28    29.91R
STANLEY        FAIR      59  45  58 N21G28    30.03R
TIOGA          FAIR      57  41  54 N22       30.08R
WATFORD CITY   FAIR      59  43  55 N15       30.05R
$$

CITY           SKY/WX    TMP DP  RH WIND       PRES   REMARKS
GRAND FORKS    PTSUNNY   68  45  43 N29G37    29.78R
GRAND FORKS AF SUNNY     66  45  45 N23G33    29.79R
DEVILS LAKE    SUNNY     63  44  50 N28G36    29.84R
FARGO          SUNNY     76  50  40 SW12      29.74S
CANDO          FAIR      63  41  45 N31G38    29.90R
CAVALIER       FAIR      59  39  47 N29G39    29.83R
GRAFTON        FAIR      63  43  48 N29G39    29.80R
GWINNER        FAIR      72  52  49 SW12      29.77F
LANGDON        FAIR      61  41  48 N22G35    29.87R
ROLLA          FAIR      57  37  47 N29G36    29.92R
WALHALLA       FAIR      57  39  51 N20G31    29.86S
$$

CITY           SKY/WX    TMP DP  RH WIND       PRES   REMARKS
ABERDEEN       SUNNY     73  52  47 W8        29.80R
MOBRIDGE       SUNNY     70  54  56 W5        29.81  HAZE
BUFFALO          N/A     68  45  43 N16       29.92R
RAPID CITY     SUNNY     71  54  54 CALM      29.91R
GLASGOW        LGT RAIN  51  46  83 N8        30.14F
SIDNEY         CLOUDY    57  43  58 N16       30.07R
WOLF POINT     CLOUDY    57  43  59 N15       30.16R
GLENDIVE       CLOUDY    57  43  58 N15       30.10R
MILES CITY     CLOUDY    62  42  47 N21       30.08R
BAKER          CLOUDY    62  43  49 N18       30.05R
$$

CITY           SKY/WX    TMP DP  RH WIND       PRES   REMARKS
BILLINGS       PTSUNNY   56  42  59 N13       30.19R HAZE
GREAT FALLS    CLOUDY    46  43  89 N7        30.27S
REGINA         PTSUNNY   54  39  58 N12G17    30.14S
ESTEVAN        CLOUDY    57  43  58 N17G25    30.06R
$$




USA.gov is the U.S. government's official web portal to all federal, state and local government web resources and services.